Regional Weather Roundup
Issued by NWS

Home | Current Version | Previous Version | Graphics & Text | Print | Product List | Glossary On
Versions: 1 2 3 4 5 6 7 8 9 10 11 12 13 14 15 16 17 18 19 20 21 22 23 24 25 26 27 28 29 30 31 32 33 34 35 36 37 38 39 40 41 42 43 44 45 46 47 48 49 50
000
ASUS45 KBOU 010007
RWRCO

WEATHER ROUNDUP FOR COLORADO
NATIONAL WEATHER SERVICE DENVER/BOULDER CO
500 PM MST SAT JAN 31 2015

NOTE: "FAIR" INDICATES FEW OR NO CLOUDS BELOW 12000 FEET WITH NO
SIGNIFICANT WEATHER AND/OR OBSTRUCTIONS TO VISIBILITY.

COZ001>005-013-030-031-010100-
...NORTHWEST COLORADO...

CITY           SKY/WX    TMP DP  RH WIND       PRES   REMARKS
CRAIG          CLOUDY    35  27  72 CALM      29.92S
HAYDEN         CLOUDY    34  25  69 W3        29.93R
MEEKER         PTCLDY    36  28  73 SW7       29.93R
MOUNT WERNER   NOT AVBL
STEAMBOAT SPGS CLOUDY    31  27  87 CALM      29.92R
WALDEN         CLOUDY    32  27  80 CALM      29.86R
$$

COZ006>008-011-010100-
...WEST CENTRAL VALLEYS...

CITY           SKY/WX    TMP DP  RH WIND       PRES   REMARKS
GRAND JUNCTION PTCLDY    41  38  89 N5        29.92S
MONTROSE       CLOUDY    38  35  89 S3        29.96R
EAGLE          PTCLDY    37  36  93 W5        29.90R
RIFLE          MOCLDY    42  30  62 W7        29.90S
DELTA          CLOUDY    44  38  80 CALM      29.92S
NUCLA          CLOUDY    39  36  87 CALM      29.98R
$$

COZ017>023-064>068-010100-
...SOUTHWEST COLORADO...

CITY           SKY/WX    TMP DP  RH WIND       PRES   REMARKS
DURANGO        CLOUDY    35  33  92 SW8       29.87R WCI  29
CORTEZ         MOCLDY    38  36  92 W7        29.92R
PAGOSA SPRINGS LGT SNOW  34  34 100 S5        29.87F WCI  30
TELLURIDE      CLOUDY    29  29  99 W17       29.94R WCI  18
WOLF CREEK PAS SNOW      21  21 100 S13       29.92F VSB 1/2 WCI   9
$$

COZ009-010-012-014-032>034-037-058>063-010100-
...CENTRAL COLORADO...

CITY           SKY/WX    TMP DP  RH WIND       PRES   REMARKS
ASPEN          CLOUDY    32  29  88 N8        29.89R WCI  25
BUENA VISTA    CLOUDY    33  31  92 W6        29.81R WCI  27
COPPER MTN     SNOW      25  19  80 MISG      29.89R VSB<1/4
BERTHOUD PASS  HAZE      16  10  79 NW37G46   29.83S VSB 1/4 WCI  -6
COTTONWOOD PAS CLOUDY    32  28  86 NW6       29.83R WCI  26
GUNNISON       CLOUDY    36  27  69 W15       29.89R
KREMMLING      CLOUDY    34  27  75 N5        29.89R WCI  30
LEADVILLE      LGT SNOW  27  23  85 NW13G20   29.85R FOG     WCI  16
MONARCH PASS   CLOUDY    21  19  93 MISG      29.96S
SALIDA         MOCLDY    37  34  88 N5        29.88R
SUNLIGHT       FOG      N/A N/A N/A CALM        N/A  VSB<1/4
WILKERSON PASS CLOUDY    25  23  93 NW12G23   29.85S WCI  14
$$

COZ069>075-010100-
...SAN LUIS VALLEY/SANGRE DE CRISTO MOUNTAINS...

CITY           SKY/WX    TMP DP  RH WIND       PRES   REMARKS
ALAMOSA        LGT SNOW  32  30  92 SW3       29.82F VSB 1
LA VETA PASS   SNOW      27  23  86 MISG      29.81S VSB 1/2
SAGUACHE       CLOUDY    32  30  93 SE5       29.84R WCI  27
$$

COZ035-036-038>040-010100-
...NORTHERN COLORADO FRONT RANGE...

CITY           SKY/WX    TMP DP  RH WIND       PRES   REMARKS
DENVER INTL AP CLOUDY    34  30  85 W5        29.80S WCI  30
DMNS CITY PARK   N/A     37  28  68 N3        29.80S
AURORA         MOCLDY    33  32  95 CALM      29.81R
FRONT RANGE AP NOT AVBL
ERIE MUNI ARPT CLOUDY    38  29  71 CALM      29.81R
BOULDER MUN AP CLOUDY    37  28  70 E6        29.80R
CENTENNIAL     CLOUDY    34  28  79 CALM      29.80R
BROOMFIELD     MOCLDY    37  27  65 CALM      29.81R
FORT COLLINS   CLOUDY    37  27  65 CALM      29.82S
LONGMONT       CLOUDY    40  28  61 SE3       29.82S
$$

COZ041-046-047-076>085-087-088-010100-
...PIKES PEAK/PALMER DIVIDE AND SOUTHERN FOOTHILLS...

CITY           SKY/WX    TMP DP  RH WIND       PRES   REMARKS
COLO. SPRINGS  LGT SNOW  34  32  92 NE5       29.79S VSB 3/4 WCI  30
A. F. ACADEMY  CLOUDY    32  32 100 N5        29.78S WCI  27
ELLICOTT       LGT SNOW N/A N/A N/A N6        29.78S
FALCON         LGT SNOW  32  31  96 N5        29.79F WCI  27
FORT CARSON    DRIZZLE   36  36 100 E3        29.78S
LIMON          LGT SNOW  32  30  93 NW10      29.78S FOG     WCI  24
MONUMENT HILL  CLOUDY    30  28  93 W6        29.78S FOG     WCI  24
TRINIDAD       CLOUDY    42  32  67 E7        29.77R
$$

COZ042>045-048>051-090-091-010100-
...NORTHEAST COLORADO...

CITY           SKY/WX    TMP DP  RH WIND       PRES   REMARKS
GREELEY ARPT   CLOUDY    39  27  60 CALM      29.81R
AKRON          LGT SNOW  32  32 100 N10       29.80R FOG     WCI  24
BURLINGTON     CLOUDY    35  33  92 N9        29.78S WCI  28
WRAY           LGT SNOW N/A N/A N/A N5        29.81S
STERLING       MIX PCPN  32  32 100 N6        29.82R WCI  26
HOLYOKE        NOT AVBL
FORT MORGAN    CLOUDY    35  33  93 N6        29.82R WCI  30
$$

COZ086-089-092>099-010100-
...SOUTHEAST COLORADO...

CITY           SKY/WX    TMP DP  RH WIND       PRES   REMARKS
PUEBLO         LGT RAIN  41  35  79 E3        29.79R
LA JUNTA       CLOUDY    43  33  68 N12       29.78R
LAMAR          LGT RAIN  42  37  82 N7        29.77S
SPRINGFIELD      N/A     42  34  73 N10       29.75S
$$



USA.gov is the U.S. government's official web portal to all federal, state and local government web resources and services.